Simultaneous Nadir Overpasses (SNOs) Predictions

Prediction of SNOs between LANDSAT-8 and NPP Satellite Orbit:

Table of predicted SNOs for the next 14.0 days since TLE Epoch: 12/3/2022
Index Date (LANDSAT-8) Time (LANDSAT-8) Lat,Lon (LANDSAT-8) SZA (LANDSAT-8 ) Date (NPP) Time (NPP) Lat,Lon (NPP) SZA (NPP ) Distance(km) Time Diff (sec)
1 12/03/2022 14:42:28 -70.19, 136.05 87.77 12/03/2022 14:41:28 -70.16, 136.03 87.80 2.91 60
2 12/03/2022 15:31:56 70.04, -56.52 92.08 12/03/2022 15:32:12 70.04, -56.47 92.08 2.07 16
3 12/03/2022 16:21:35 -69.42, 110.27 88.53 12/03/2022 16:22:44 -69.42, 111.76 88.53 58.00 69
4 12/06/2022 06:58:58 -70.12,-108.16 87.49 12/06/2022 06:58:27 -70.14,-108.18 87.47 2.15 31
5 12/06/2022 07:48:25 70.02, 59.34 92.41 12/06/2022 07:49:11 70.02, 59.32 92.41 0.71 46
6 12/08/2022 22:25:56 70.21,-159.79 92.89 12/08/2022 22:24:43 70.21,-159.84 92.90 1.98 73
7 12/08/2022 23:15:26 -70.10, 7.68 87.22 12/08/2022 23:15:24 -70.07, 7.69 87.25 2.88 2
8 12/09/2022 00:04:55 69.88, 175.02 92.57 12/09/2022 00:06:07 69.89, 175.27 92.58 9.49 72
9 12/11/2022 14:42:25 70.16, -43.97 93.09 12/11/2022 14:41:41 70.15, -43.99 93.08 1.65 44
10 12/11/2022 15:31:55 -70.06, 123.51 87.02 12/11/2022 15:32:23 -70.06, 123.47 87.02 1.37 28
11 12/14/2022 06:09:16 -70.82, -94.76 86.08 12/14/2022 06:08:07 -70.84, -96.64 86.03 68.39 69
12 12/14/2022 06:58:54 70.11, 71.83 93.22 12/14/2022 06:58:39 70.09, 71.86 93.21 2.02 15
13 12/14/2022 07:48:24 -70.00,-120.69 86.88 12/14/2022 07:49:21 -70.00,-120.68 86.89 0.67 57
14 12/16/2022 22:25:55 -70.21, 20.21 86.55 12/16/2022 22:24:54 -70.21, 20.14 86.54 2.78 61
15 12/16/2022 23:15:22 70.09,-172.31 93.34 12/16/2022 23:15:38 70.09,-172.38 93.35 2.75 16
16 12/17/2022 00:05:01 -69.50, -5.50 87.25 12/17/2022 00:06:10 -69.47, -4.13 87.29 53.38 69



Historial Predications of SNOs between LANDSAT-8 and NPP
